WQ2H Weather Reports


time (UTC)temp
C
wind
direction
speed
KPH
gust
KPH
rain 1hr
cm
rain 24hr
cm
rain mn
cm
humidity
%
barometer
mb
20260504081552 6 31 0.0 6.4 0.00 0.00 0.00 67 1038.1
20260504044602 0 0 0.0 0.0 0.00 0.00 0.00 89 1038.5
20260504043053 0 0 0.0 0.0 0.00 0.00 0.00 90 1038.5
20260504041554 -1 0 0.0 0.0 0.00 0.00 0.00 90 1038.5
20260504040106 -1 0 0.0 0.0 0.00 0.00 0.00 90 1038.4
20260504034611 -1 0 0.0 0.0 0.00 0.00 0.00 89 1038.3
20260504033051 -1 0 0.0 0.0 0.00 0.00 0.00 88 1038.3
20260504031548 0 0 0.0 0.0 0.00 0.00 0.00 87 1038.1
20260504030108 0 0 0.0 0.0 0.00 0.00 0.00 86 1038.1
20260504024555 0 0 0.0 0.0 0.00 0.00 0.00 86 1038.1
20260504023050 0 0 0.0 0.0 0.00 0.00 0.00 85 1038.2
20260504021554 0 0 0.0 0.0 0.00 0.00 0.00 84 1038.2
20260504020046 0 0 0.0 0.0 0.00 0.00 0.00 82 1038.1
20260504014552 1 0 0.0 0.0 0.00 0.00 0.00 80 1037.9
20260504013052 1 0 0.0 1.6 0.00 0.00 0.00 79 1037.7
20260504011550 2 0 0.0 1.6 0.00 0.00 0.00 78 1037.5
20260504010051 2 0 0.0 0.0 0.00 0.00 0.00 76 1037.2
20260504004549 3 0 0.0 0.0 0.00 0.00 0.00 72 1037.0
20260504003047 4 0 0.0 0.0 0.00 0.00 0.00 66 1037.0
20260504001602 5 0 0.0 0.0 0.00 0.00 0.00 62 1036.9
20260504000050 6 0 0.0 1.6 0.00 0.00 0.00 56 1036.7
20260503234549 6 0 0.0 1.6 0.00 0.00 0.00 54 1036.7
20260503233049 7 332 0.0 4.8 0.00 0.00 0.00 50 1036.5
20260503231552 7 243 0.0 11.3 0.00 0.00 0.00 49 1036.4
20260503230047 8 319 3.2 6.4 0.00 0.00 0.00 47 1036.4
20260503224544 8 360 3.2 6.4 0.00 0.03 0.00 45 1036.3
20260503223049 8 311 3.2 9.7 0.00 0.03 0.00 47 1036.3
20260503221549 7 0 3.2 8.0 0.00 0.03 0.00 47 1036.3
20260503220050 7 323 1.6 9.7 0.00 0.03 0.00 49 1036.2
20260503214556 7 309 3.2 9.7 0.00 0.05 0.00 47 1036.0
20260503213052 7 313 4.8 14.5 0.00 0.05 0.00 46 1036.1
20260503211554 8 307 4.8 14.5 0.00 0.05 0.00 45 1035.8
20260503210052 8 298 4.8 12.9 0.00 0.05 0.00 45 1035.5
20260503204555 8 311 3.2 12.9 0.00 0.05 0.00 44 1035.4
20260503203053 8 10 3.2 12.9 0.00 0.05 0.00 45 1035.4
20260503201547 8 315 3.2 8.0 0.00 0.05 0.00 48 1035.4
20260503200047 8 5 3.2 12.9 0.00 0.05 0.00 45 1035.3
20260503194549 9 342 3.2 17.7 0.00 0.05 0.00 45 1035.4
20260503193106 8 293 4.8 20.9 0.00 0.05 0.00 50 1035.2
20260503191553 8 283 4.8 12.9 0.00 0.05 0.00 46 1035.1
20260503190105 9 279 3.2 17.7 0.00 0.05 0.00 46 1035.1
20260503184553 8 352 3.2 11.3 0.00 0.05 0.00 44 1035.2
20260503183059 8 41 3.2 14.5 0.00 0.05 0.00 45 1035.1
20260503181551 8 267 3.2 12.9 0.00 0.05 0.00 46 1035.0
20260503180055 8 352 4.8 17.7 0.00 0.05 0.00 44 1035.1
20260503174551 10 331 4.8 17.7 0.00 0.08 0.00 46 1034.7
20260503173111 10 360 6.4 17.7 0.00 0.08 0.00 43 1034.9
20260503171552 9 259 8.0 24.1 0.00 0.08 0.00 47 1034.8